Total_Precipitation_Accumulation
0.00 0.00 0.00 0.00 0.00 0.00 0.00 0.01 0.02 0.02 0.02 0.02 0.05 0.10 0.17 0.21 0.25 0.35 0.42 0.49 0.59 0.74 1.10 1.43 1.50 1.54 1.73 1.92 2.10 2.00 2.04 2.24 2.39 2.63 2.66 2.82 3.15 3.54 3.76 3.95 4.07 4.07 4.00 3.99
0.00 0.00 0.00 0.00 0.00 0.00 0.00 0.00 0.01 0.03 0.04 0.04 0.08 0.18 0.24 0.28 0.29 0.36 0.49 0.55 0.56 0.67 0.94 1.36 1.47 1.62 1.81 1.96 2.12 2.20 2.27 2.60 3.08 3.48 3.89 4.26 4.54 4.54 4.69 4.73 4.71 4.57 4.44 4.32
0.00 0.00 0.00 0.00 0.00 0.00 0.00 0.00 0.01 0.03 0.06 0.09 0.13 0.28 0.36 0.39 0.45 0.49 0.55 0.61 0.67 0.79 0.96 1.14 1.34 1.58 1.80 1.97 2.17 2.28 2.55 3.18 3.97 4.35 4.67 5.21 5.51 5.32 5.11 4.89 4.81 4.71 4.69 4.69
0.00 0.00 0.00 0.00 0.00 0.00 0.00 0.01 0.01 0.03 0.05 0.11 0.14 0.34 0.54 0.59 0.66 0.61 0.69 0.82 0.93 0.96 1.03 1.18 1.37 1.61 1.91 2.20 2.28 2.42 2.89 3.61 4.27 4.73 5.29 5.81 6.03 6.04 5.88 5.40 4.96 4.52 4.18 3.99
0.00 0.00 0.01 0.01 0.01 0.00 0.01 0.01 0.01 0.04 0.05 0.09 0.12 0.28 0.64 0.83 0.89 0.86 0.93 0.93 0.96 0.96 1.06 1.20 1.33 1.51 1.70 1.98 2.35 2.59 3.08 3.74 4.40 5.09 5.76 6.13 6.32 6.29 5.87 5.09 4.35 3.90 3.59 3.32
0.00 0.00 0.01 0.01 0.01 0.01 0.01 0.01 0.02 0.04 0.06 0.11 0.11 0.25 0.69 1.04 1.21 1.22 1.14 1.09 1.03 0.96 0.98 1.07 1.23 1.31 1.59 1.85 2.12 2.51 2.80 3.42 4.11 4.69 5.18 5.32 5.46 5.39 4.96 4.50 4.01 3.62 3.17 2.68
0.01 0.01 0.01 0.01 0.01 0.01 0.01 0.02 0.08 0.16 0.19 0.19 0.15 0.31 0.76 1.10 1.12 1.08 1.11 1.18 1.13 0.98 0.99 1.15 1.36 1.28 1.50 1.74 2.02 2.38 2.77 3.16 3.66 4.16 4.58 4.82 4.93 4.75 4.29 3.87 3.48 3.03 2.56 2.15
0.06 0.04 0.03 0.01 0.02 0.02 0.01 0.03 0.15 0.26 0.30 0.32 0.32 0.57 0.98 1.05 0.99 0.94 0.93 0.98 1.07 1.04 0.99 1.04 1.18 1.21 1.41 1.60 1.85 2.18 2.49 2.78 2.98 3.17 3.49 3.72 3.87 3.73 3.40 2.95 2.49 2.21 1.94 1.68
0.13 0.12 0.05 0.02 0.02 0.02 0.03 0.05 0.11 0.13 0.17 0.34 0.64 0.90 1.24 1.21 1.08 1.00 0.91 0.89 0.94 0.91 0.88 0.93 1.04 1.15 1.33 1.58 1.81 2.05 2.17 2.31 2.46 2.57 2.62 2.67 2.78 2.68 2.45 2.18 1.90 1.63 1.38 1.18
0.13 0.18 0.08 0.03 0.02 0.03 0.04 0.06 0.08 0.12 0.28 0.47 0.73 1.15 1.46 1.59 1.48 1.32 1.05 0.95 0.88 0.93 0.94 0.94 0.99 1.06 1.12 1.21 1.46 1.66 1.74 1.80 1.85 1.88 1.92 1.94 1.95 1.88 1.79 1.63 1.43 1.21 1.05 0.89
0.15 0.21 0.13 0.06 0.06 0.07 0.06 0.07 0.09 0.14 0.21 0.42 0.78 1.35 1.60 1.86 1.91 1.71 1.36 1.18 1.12 1.12 1.06 1.00 1.00 0.96 0.97 0.98 1.11 1.29 1.42 1.42 1.46 1.51 1.47 1.41 1.46 1.42 1.34 1.28 1.19 1.05 0.94 0.82
0.16 0.22 0.21 0.13 0.10 0.08 0.08 0.11 0.15 0.23 0.26 0.29 0.66 1.50 1.90 2.03 1.97 1.69 1.49 1.33 1.27 1.19 1.06 0.96 0.90 0.81 0.80 0.84 0.87 0.94 1.03 1.04 1.05 1.06 1.06 1.11 1.14 1.15 1.10 1.00 0.90 0.76 0.68 0.63
0.13 0.25 0.45 0.44 0.34 0.18 0.12 0.13 0.15 0.16 0.24 0.35 0.71 1.70 2.25 2.20 2.05 1.76 1.55 1.51 1.51 1.38 1.18 1.06 0.91 0.76 0.73 0.77 0.78 0.78 0.81 0.83 0.84 0.79 0.81 0.89 0.91 0.93 0.88 0.78 0.75 0.68 0.57 0.53
0.10 0.25 0.55 0.96 0.75 0.43 0.24 0.16 0.18 0.22 0.36 0.50 0.74 1.22 1.54 1.66 1.75 1.76 1.84 1.89 1.73 1.49 1.29 1.10 0.98 0.84 0.75 0.78 0.75 0.74 0.74 0.70 0.70 0.70 0.73 0.79 0.78 0.78 0.76 0.67 0.58 0.54 0.50 0.49
0.16 0.31 0.32 0.38 0.38 0.37 0.34 0.25 0.23 0.27 0.33 0.60 0.90 1.24 1.54 1.60 1.62 1.67 1.82 1.74 1.53 1.36 1.21 1.08 1.00 0.97 0.86 0.76 0.69 0.70 0.75 0.73 0.74 0.75 0.73 0.73 0.69 0.67 0.66 0.63 0.57 0.50 0.45 0.42
0.18 0.30 0.31 0.37 0.33 0.40 0.35 0.32 0.32 0.37 0.45 0.67 1.02 1.43 1.64 1.65 1.59 1.64 1.71 1.65 1.49 1.27 1.12 1.04 1.00 1.02 0.91 0.80 0.70 0.66 0.72 0.75 0.78 0.79 0.74 0.71 0.68 0.66 0.62 0.59 0.56 0.51 0.45 0.38
0.23 0.37 0.48 0.51 0.35 0.51 0.73 0.55 0.52 0.56 0.60 0.78 1.17 1.39 1.45 1.53 1.52 1.57 1.66 1.73 1.61 1.38 1.26 1.24 1.26 1.25 1.12 0.96 0.84 0.79 0.81 0.82 0.82 0.85 0.81 0.78 0.71 0.64 0.60 0.52 0.48 0.47 0.47 0.39
0.23 0.37 0.47 0.49 0.60 0.99 0.93 0.52 0.55 0.63 0.66 0.72 0.84 0.99 1.14 1.23 1.29 1.43 1.61 1.73 1.69 1.58 1.52 1.52 1.47 1.35 1.22 1.10 1.01 0.92 0.86 0.89 0.93 0.89 0.83 0.74 0.64 0.56 0.53 0.52 0.49 0.43 0.41 0.39
0.13 0.31 0.49 0.63 0.89 1.09 0.91 0.56 0.49 0.72 0.85 0.68 0.70 0.72 0.74 0.77 0.91 1.26 1.45 1.52 1.55 1.58 1.53 1.42 1.33 1.25 1.18 1.08 1.00 0.89 0.83 0.80 0.81 0.76 0.70 0.63 0.59 0.57 0.55 0.54 0.54 0.49 0.43 0.39
0.12 0.23 0.52 0.70 0.95 1.23 1.08 0.51 0.31 0.59 1.14 0.82 0.70 0.69 0.70 0.79 0.96 1.07 1.09 1.10 1.15 1.20 1.22 1.21 1.15 1.08 1.01 0.92 0.82 0.76 0.71 0.68 0.65 0.61 0.58 0.52 0.51 0.53 0.55 0.50 0.49 0.46 0.42 0.39
0.38 0.42 0.56 0.69 0.90 1.09 0.59 0.32 0.43 0.99 1.31 0.89 0.74 0.70 0.75 0.87 0.84 0.70 0.70 0.79 0.91 0.98 1.02 1.01 1.01 1.00 0.87 0.71 0.64 0.66 0.63 0.57 0.47 0.43 0.47 0.48 0.49 0.49 0.48 0.47 0.48 0.47 0.44 0.42
0.48 0.59 0.63 0.71 1.00 1.15 0.45 0.35 0.68 0.82 0.64 0.63 0.63 0.60 0.59 0.55 0.47 0.49 0.54 0.60 0.65 0.76 0.87 0.84 0.79 0.73 0.64 0.58 0.61 0.63 0.60 0.48 0.39 0.40 0.46 0.49 0.48 0.42 0.42 0.48 0.50 0.47 0.44 0.41
0.40 0.46 0.58 0.74 0.93 0.70 0.32 0.32 0.38 0.36 0.42 0.43 0.42 0.41 0.36 0.35 0.35 0.37 0.45 0.51 0.54 0.58 0.66 0.67 0.63 0.59 0.58 0.60 0.63 0.61 0.54 0.45 0.43 0.44 0.48 0.47 0.44 0.42 0.42 0.46 0.48 0.48 0.45 0.37
0.37 0.24 0.31 0.49 0.54 0.35 0.23 0.19 0.19 0.21 0.27 0.29 0.34 0.42 0.36 0.35 0.34 0.34 0.38 0.44 0.51 0.53 0.54 0.55 0.54 0.53 0.57 0.57 0.55 0.53 0.45 0.44 0.47 0.49 0.48 0.46 0.46 0.44 0.40 0.38 0.37 0.39 0.39 0.35
0.31 0.27 0.36 0.43 0.37 0.27 0.24 0.17 0.11 0.13 0.17 0.21 0.31 0.41 0.41 0.37 0.39 0.37 0.37 0.41 0.47 0.51 0.53 0.54 0.53 0.51 0.49 0.48 0.45 0.42 0.40 0.41 0.45 0.45 0.42 0.42 0.43 0.41 0.38 0.32 0.28 0.28 0.25 0.18
0.23 0.26 0.36 0.40 0.28 0.26 0.23 0.15 0.11 0.17 0.23 0.26 0.32 0.41 0.37 0.33 0.36 0.36 0.40 0.41 0.43 0.46 0.47 0.50 0.45 0.43 0.40 0.37 0.37 0.37 0.35 0.34 0.40 0.41 0.37 0.34 0.34 0.33 0.29 0.27 0.25 0.18 0.12 0.09